Location: Ar Ranvel
(48.3000°N, 4.8833°W)
Time: 04:07:42
(UTC+00:00)

Cosmos 2322 Rocket - Pass Details

Date: 26 October 2021
Orbit: 832 x 851 km, 71.0° (Epoch: 01 December)

Event Time Altitude Azimuth Distance (km) Brightness Sun altitude
Rises 19:16:38 0° 227° (SW) 3,367 5.9 -21.6°
Reaches altitude 10° 19:19:10 10° 233° (SW) 2,438 5.2 -22.0°
Maximum altitude 19:24:30 45° 306° (NW) 1,134 3.2 -22.9°
Drops below altitude 10° 19:29:54 10° 19° (NNE) 2,459 4.5 -23.8°
Enters shadow 19:31:10 - 22° (NNE) 2,918 4.9 -24.0°
